[[{"header":{"parameterUnit":"m.s-1","parameterCategory":1,"la1":30.2991,"la2":30.254,"lo1":-89.0895,"lo2":-89.0444,"dy":0.0017,"dx":0.0017,"nx":28,"ny":28,"refTime":"2023-10-26T21:00:00:Z","depth":0,"parameterNumber":2,"parameterNumberName":"U-component_of_WINDS"},"data":[0,0,0,0,0,0,0,0,0,0,0,0,0,0,0,0,0,0,0,0,0,0,0,0,0,0,0,0,0,0,0,0,0,0,0,0,0,0,0,0,0,0,0,0,0,0,0,0,0,0,0,0,0,0,0,0,0,0,-2.7771,-2.7771,0,-2.7803,-2.7804,-2.7804,-2.7708,-2.7705,-2.7702,-2.7699,-2.7733,-2.7737,-2.774,0,0,0,0,0,0,0,0,0,0,0,0,0,-2.7627,-2.763,-2.7771,-2.7771,-2.7772,-2.7803,-2.7804,-2.7804,-2.7708,-2.7705,-2.7701,-2.7698,-2.7732,-2.7736,-2.7741,0,0,0,0,0,0,0,0,0,0,0,0,0,-2.7678,-2.7631,-2.7771,-2.7728,-2.7724,-2.7803,-2.7804,-2.7804,-2.7709,-2.7705,-2.77,-2.7696,-2.773,-2.7736,-2.7741,-2.7864,0,0,-2.7758,-2.776,0,0,0,0,0,0,0,0,-2.7675,-2.7683,-2.7734,-2.7731,-2.7727,-2.7747,-2.7765,-2.7824,-2.771,-2.7715,-2.7699,-2.7694,-2.7741,-2.7746,-2.7761,-2.7865,-2.7867,-2.7758,-2.7762,-2.7764,-2.7766,0,0,0,0,0,0,0,-2.7671,-2.7681,-2.7784,-2.7734,-2.773,-2.7707,-2.7709,-2.7776,-2.7753,-2.7714,-2.7707,-2.7712,-2.7739,-2.7756,-2.7762,-2.7867,-2.7758,-2.7763,-2.7767,-2.7769,-2.8075,-2.8079,0,0,0,0,0,0,-2.7673,-2.7679,-2.7782,-2.7785,-2.7689,-2.7713,-2.7716,-2.7745,-2.7752,-2.7748,-2.7716,-2.7708,-2.7749,-2.7755,-2.7762,-2.7907,-2.7764,-2.7769,-2.7772,-2.807,-2.8076,-2.8081,0,0,0,0,0,0,-2.7671,-2.7684,-2.7781,-2.773,-2.774,-2.772,-2.7754,-2.7748,-2.7766,-2.7753,-2.7748,-2.7739,-2.7746,-2.7755,-2.784,-2.7907,-2.7772,-2.7777,-2.8064,-2.8072,-2.8078,-2.8198,0,0,0,0,0,0,-2.7667,-2.7683,-2.7729,-2.7732,-2.7744,-2.7858,-2.7758,-2.7752,-2.7775,-2.7765,-2.7773,-2.777,-2.7743,-2.7832,-2.7845,-2.7912,-2.7781,-2.8058,-2.8068,-2.8076,-2.8188,-2.8208,-2.8226,0,0,0,0,0,-2.7662,-2.7761,-2.7732,-2.7745,-2.78,-2.7862,-2.7869,-2.7836,-2.7781,-2.7827,-2.782,-2.777,-2.7898,-2.7841,-2.7855,-2.7925,-2.8054,-2.8065,-2.8075,-2.8179,-2.8204,-2.8225,0,0,0,0,0,0,-2.7766,-2.776,-2.7728,-2.783,-2.7848,-2.7845,-2.7903,-2.7863,-2.7896,-2.7884,-2.7842,-2.7845,-2.7938,-2.794,-2.7877,-2.8045,-2.7966,-2.7981,-2.804,-2.8064,-2.8083,-2.8081,-2.7785,0,0,0,0,0,-2.7801,-2.7851,-2.7843,-2.7935,-2.7945,-2.7923,-2.7948,-2.7922,-2.7937,-2.7944,-2.7942,-2.796,-2.8004,-2.8034,-2.8074,-2.8187,-2.8189,-2.8242,-2.8262,-2.8277,-2.829,-2.8352,-2.8376,-2.8117,-2.8117,-2.8117,0,0,-2.7874,-2.7877,-2.7911,-2.7956,-2.7966,-2.8019,-2.7929,-2.7989,-2.8029,-2.7953,-2.8033,-2.8033,-2.805,-2.815,-2.8194,-2.8155,-2.8362,-2.8291,-2.8304,-2.8308,-2.8366,-2.839,-2.8412,-2.8124,-2.8123,-2.8122,0,0,-2.8034,-2.804,-2.8118,-2.813,-2.8147,-2.8132,-2.8151,-2.8155,-2.8152,-2.8232,-2.8177,-2.8224,-2.83,-2.8315,-2.8333,-2.8501,-2.8457,-2.8515,-2.8614,-2.8675,-2.8696,-2.8714,-2.8775,-2.8797,-2.8528,-2.8528,-2.8528,0,-2.8122,-2.82,-2.8163,-2.8227,-2.8249,-2.8184,-2.8263,-2.8276,-2.8305,-2.8322,-2.8277,-2.8373,-2.838,-2.8484,-2.8525,-2.8541,-2.8562,-2.8514,-2.8696,-2.8713,-2.8729,-2.8787,-2.881,-2.8535,-2.8534,-2.8533,-2.8533,0,-2.8308,-2.8363,-2.8424,-2.8454,-2.8483,-2.8554,-2.8529,-2.8562,-2.8534,-2.8524,-2.8607,-2.8613,-2.8654,-2.8677,-2.8649,-2.8777,-2.8752,-2.8703,-2.8623,-2.8762,-2.8816,-2.8837,-2.8545,-2.8543,-2.854,-2.8539,0,0,-2.8533,-2.8543,-2.8566,-2.858,-2.8594,-2.8637,-2.8706,-2.8746,-2.8776,-2.8799,-2.8856,-2.8924,-2.8878,-2.8899,-2.8872,-2.8926,-2.906,-2.8869,-2.8869,-2.8905,-2.9204,-2.9242,-2.9268,-2.9031,-2.9035,-2.9038,-2.9203,0,-2.8691,-2.8809,-2.8779,-2.8897,-2.8948,-2.8888,-2.8948,-2.8964,-2.8958,-2.9001,-2.8992,-2.9042,-2.8977,-2.8989,-2.9039,-2.9033,-2.912,-2.9021,-2.9085,-2.9088,-2.9083,-2.9296,-2.9336,-2.9491,-2.9223,-2.9227,-2.9229,0,-2.8891,-2.8922,-2.9046,-2.9054,-2.9074,-2.9129,-2.9164,-2.9206,-2.9223,-2.9214,-2.9238,-2.9202,-2.9271,-2.9191,-2.9287,-2.922,-2.9245,-2.9246,-2.9251,-2.9257,-2.9167,-2.9308,-2.9539,-2.9563,-2.9262,-2.9259,-2.9257,0,-2.9044,-2.9117,-2.9201,-2.9214,-2.9225,-2.9266,-2.9272,-2.9285,-2.9312,-2.9343,-2.936,-2.9399,-2.9421,-2.9452,-2.9428,-2.9371,-2.9528,-2.9445,-2.9523,-2.9524,-2.9559,-2.9557,-2.9799,-2.9574,-2.9574,-2.9574,-2.9573,0,-2.9224,-2.9302,-2.927,-2.9322,-2.9408,-2.9373,-2.946,-2.9459,-2.9472,-2.9523,-2.9473,-2.9522,-2.9486,-2.9533,-2.9514,-2.9597,-2.9607,-2.9603,-2.9597,-2.9608,-2.9608,-2.9623,-2.9612,-2.958,-2.9578,-2.9577,-2.9576,0,-2.941,-2.9391,-2.9479,-2.9482,-2.9485,-2.9549,-2.9552,-2.9601,-2.9591,-2.9656,-2.9669,-2.9654,-2.9706,-2.9685,-2.974,-2.9728,-2.9835,-2.9814,-2.9829,-2.9824,-2.9904,-2.9897,-3.0164,-3.0198,-2.9951,-2.9953,-2.9955,0,-2.9526,-2.9585,-2.9596,-2.9627,-2.9637,-2.9687,-2.9714,-2.9683,-2.9713,-2.9739,-2.9785,-2.9833,-2.987,-2.9956,-2.995,-2.9993,-2.9974,-3.0064,-2.998,-2.9989,-2.9976,-2.9974,-2.998,-3.0081,-3.0084,-3.0087,-3.0088,0,-2.9735,-2.9723,-2.9765,-2.9804,-2.9839,-2.9868,-2.9893,-2.9921,-2.9891,-2.9928,-2.9981,-3.001,-3.0067,-3.0116,-3.0154,-3.0161,-3.0121,-3.0115,-3.0136,-3.0148,-3.0154,-3.0153,-2.9876,-3.0109,-3.0107,-3.0106,-3.0105,-3.0104,-2.989,-2.994,-2.9956,-3.0004,-3.002,-3.0045,-3.0091,-3.0088,-3.0132,-3.0176,-3.0155,-3.0217,-3.0235,-3.0282,-3.0295,-3.0344,-3.0308,-3.0338,-3.0345,-3.0353,-3.0364,-3.0146,-3.0351,-3.035,-3.0349,-3.0349,-3.0348,0,-3.0097,-3.0105,-3.015,-3.0187,-3.0225,-3.0184,-3.021,-3.0245,-3.0301,-3.0321,-3.0358,-3.0421,-3.0468,-3.0467,-3.0512,-3.0551,-3.0534,-3.0564,-3.0561,-3.0564,-3.0393,-3.0371,-3.0577,-3.0577,-3.0577,-3.0577,-3.0577,-3.0577,-3.0209,-3.0292,-3.0283,-3.0374,-3.0381,-3.0442,-3.0461,-3.0484,-3.05,-3.0572,-3.0612,-3.0611,-3.0623,-3.0668,-3.0711,-3.0709,-3.0728,-3.0766,-3.0757,-3.0598,-3.0575,-3.0554,-3.0533,-3.077,-3.077,-3.0924,-3.0925,-3.0926]},{"header":{"parameterUnit":"m.s-1","parameterCategory":1,"la1":30.2991,"la2":30.254,"lo1":-89.0895,"lo2":-89.0444,"dy":0.0017,"dx":0.0017,"nx":28,"ny":28,"refTime":"2023-10-26T21:00:00:Z","depth":0,"parameterNumber":3,"parameterNumberName":"V-component_of_WINDS"},"data":[0,0,0,0,0,0,0,0,0,0,0,0,0,0,0,0,0,0,0,0,0,0,0,0,0,0,0,0,0,0,0,0,0,0,0,0,0,0,0,0,0,0,0,0,0,0,0,0,0,0,0,0,0,0,0,0,0,0,-0.4482,-0.4482,0,-0.4454,-0.4454,-0.4454,-0.4467,-0.4468,-0.4469,-0.447,-0.444,-0.4438,-0.4437,0,0,0,0,0,0,0,0,0,0,0,0,0,-0.4543,-0.4541,-0.4482,-0.4482,-0.4481,-0.4454,-0.4454,-0.4453,-0.4467,-0.4468,-0.4469,-0.447,-0.444,-0.4438,-0.4437,0,0,0,0,0,0,0,0,0,0,0,0,0,-0.4516,-0.4541,-0.4482,-0.4485,-0.4485,-0.4454,-0.4454,-0.4453,-0.4467,-0.4468,-0.4469,-0.447,-0.4441,-0.4439,-0.4436,-0.4401,0,0,-0.443,-0.4429,0,0,0,0,0,0,0,0,-0.4517,-0.4513,-0.4485,-0.4485,-0.4485,-0.4465,-0.4464,-0.4436,-0.4467,-0.4474,-0.447,-0.4471,-0.4447,-0.4445,-0.4437,-0.44,-0.4398,-0.443,-0.4428,-0.4427,-0.4427,0,0,0,0,0,0,0,-0.4519,-0.4515,-0.4471,-0.4484,-0.4484,-0.4486,-0.4484,-0.4459,-0.4455,-0.4473,-0.4474,-0.4471,-0.4447,-0.4439,-0.4436,-0.4398,-0.443,-0.4428,-0.4426,-0.4425,-0.4325,-0.4324,0,0,0,0,0,0,-0.4521,-0.4516,-0.4472,-0.447,-0.4504,-0.4484,-0.4481,-0.447,-0.4455,-0.4454,-0.447,-0.4472,-0.4442,-0.4439,-0.4435,-0.439,-0.4427,-0.4425,-0.4424,-0.4326,-0.4325,-0.4323,0,0,0,0,0,0,-0.4522,-0.4517,-0.4473,-0.4493,-0.4488,-0.4482,-0.447,-0.4469,-0.4461,-0.4453,-0.4452,-0.4462,-0.4443,-0.4439,-0.4408,-0.4389,-0.4424,-0.4422,-0.4328,-0.4326,-0.4324,-0.43,0,0,0,0,0,0,-0.4524,-0.4518,-0.4505,-0.4493,-0.4487,-0.4448,-0.4469,-0.4468,-0.4457,-0.4459,-0.4445,-0.4444,-0.4444,-0.4412,-0.4406,-0.4386,-0.442,-0.4329,-0.4327,-0.4324,-0.4302,-0.4297,-0.4293,0,0,0,0,0,-0.4526,-0.45,-0.4505,-0.4499,-0.4471,-0.4447,-0.4443,-0.4444,-0.4456,-0.4442,-0.4436,-0.4444,-0.4392,-0.4408,-0.4403,-0.4382,-0.4331,-0.4328,-0.4325,-0.4304,-0.4298,-0.4293,0,0,0,0,0,0,-0.4511,-0.4499,-0.4504,-0.4473,-0.4461,-0.4449,-0.4433,-0.4438,-0.4421,-0.4424,-0.4424,-0.4421,-0.4389,-0.4383,-0.4401,-0.4344,-0.4363,-0.4359,-0.435,-0.4344,-0.4339,-0.434,-0.4419,0,0,0,0,0,-0.4504,-0.4486,-0.4476,-0.445,-0.4444,-0.4439,-0.4428,-0.4429,-0.4416,-0.4411,-0.4403,-0.4389,-0.4369,-0.4356,-0.4338,-0.4301,-0.4296,-0.4284,-0.4279,-0.4275,-0.4271,-0.4247,-0.424,-0.4313,-0.4313,-0.4313,0,0,-0.449,-0.4481,-0.447,-0.4447,-0.4437,-0.4416,-0.4435,-0.4413,-0.4397,-0.4408,-0.4378,-0.4371,-0.4356,-0.4321,-0.4306,-0.4315,-0.4249,-0.4271,-0.4268,-0.4266,-0.4243,-0.4236,-0.423,-0.4311,-0.4311,-0.4312,0,0,-0.4453,-0.4445,-0.4421,-0.441,-0.4395,-0.4392,-0.4386,-0.4372,-0.4368,-0.4338,-0.4345,-0.4325,-0.4292,-0.4279,-0.4268,-0.4221,-0.4227,-0.4215,-0.419,-0.4167,-0.4161,-0.4155,-0.4135,-0.4129,-0.4211,-0.4211,-0.4211,0,-0.4437,-0.4407,-0.4408,-0.4384,-0.4373,-0.4381,-0.4354,-0.4344,-0.4323,-0.4314,-0.4325,-0.428,-0.427,-0.4231,-0.4219,-0.4211,-0.4202,-0.4217,-0.4162,-0.4156,-0.4152,-0.4132,-0.4125,-0.421,-0.421,-0.421,-0.421,0,-0.4386,-0.4365,-0.4347,-0.4326,-0.4312,-0.4287,-0.4282,-0.4268,-0.4269,-0.4263,-0.423,-0.4219,-0.4196,-0.4187,-0.4189,-0.4146,-0.4152,-0.4162,-0.4181,-0.4143,-0.4125,-0.4118,-0.4208,-0.4208,-0.4209,-0.4209,0,0,-0.4341,-0.4318,-0.4311,-0.4299,-0.4282,-0.4264,-0.4238,-0.4216,-0.4201,-0.4186,-0.4162,-0.4132,-0.414,-0.4127,-0.4127,-0.4107,-0.4066,-0.4119,-0.4118,-0.4107,-0.4013,-0.4004,-0.3996,-0.4069,-0.4068,-0.4067,-0.4014,0,-0.43,-0.4255,-0.4253,-0.4212,-0.419,-0.4195,-0.4172,-0.4157,-0.415,-0.4129,-0.4122,-0.4098,-0.4113,-0.4104,-0.4084,-0.4075,-0.4047,-0.4079,-0.4045,-0.4044,-0.4047,-0.3987,-0.3979,-0.3929,-0.4007,-0.4006,-0.4005,0,-0.4248,-0.4229,-0.4185,-0.4166,-0.4157,-0.4136,-0.4113,-0.4094,-0.4075,-0.4071,-0.4055,-0.4057,-0.4027,-0.4047,-0.4005,-0.4027,-0.4012,-0.4005,-0.4003,-0.3998,-0.4021,-0.3979,-0.3914,-0.3905,-0.3994,-0.3995,-0.3996,0,-0.4215,-0.4179,-0.4147,-0.4137,-0.4116,-0.41,-0.409,-0.4073,-0.4058,-0.4037,-0.4027,-0.4003,-0.3989,-0.397,-0.3963,-0.3979,-0.3919,-0.394,-0.3913,-0.3913,-0.3899,-0.39,-0.3828,-0.3893,-0.3894,-0.3894,-0.3894,0,-0.4169,-0.4141,-0.4131,-0.4111,-0.4079,-0.4076,-0.4043,-0.4034,-0.4018,-0.3994,-0.3997,-0.3975,-0.3969,-0.3944,-0.394,-0.3902,-0.3897,-0.3891,-0.389,-0.389,-0.389,-0.3879,-0.3881,-0.3892,-0.3892,-0.3893,-0.3893,0,-0.4127,-0.412,-0.4085,-0.4066,-0.406,-0.4037,-0.4019,-0.3999,-0.3991,-0.3961,-0.3953,-0.3941,-0.3912,-0.3904,-0.387,-0.3866,-0.3821,-0.3824,-0.3827,-0.3827,-0.3799,-0.38,-0.3716,-0.3703,-0.3779,-0.3778,-0.3778,0,-0.4098,-0.4076,-0.4054,-0.4038,-0.4027,-0.4002,-0.3986,-0.3981,-0.3964,-0.3939,-0.392,-0.3891,-0.3868,-0.382,-0.3807,-0.3779,-0.378,-0.3752,-0.3776,-0.3775,-0.3776,-0.3776,-0.3772,-0.3748,-0.3747,-0.3746,-0.3746,0,-0.4045,-0.4041,-0.4019,-0.3993,-0.3973,-0.3953,-0.3934,-0.392,-0.3912,-0.3892,-0.3861,-0.3843,-0.3806,-0.3776,-0.3747,-0.3735,-0.3737,-0.3738,-0.373,-0.3729,-0.373,-0.3725,-0.3812,-0.374,-0.3741,-0.3741,-0.3741,-0.3742,-0.4006,-0.3985,-0.3965,-0.3938,-0.3923,-0.3903,-0.3882,-0.387,-0.3845,-0.3815,-0.3813,-0.3779,-0.3757,-0.3718,-0.3704,-0.3676,-0.3684,-0.3673,-0.3669,-0.3666,-0.3662,-0.3736,-0.3671,-0.3671,-0.3671,-0.3671,-0.3671,0,-0.3951,-0.3937,-0.3913,-0.3884,-0.3862,-0.3867,-0.3844,-0.3824,-0.3795,-0.3774,-0.375,-0.3713,-0.3683,-0.3666,-0.3635,-0.3615,-0.3615,-0.3607,-0.3607,-0.3603,-0.3658,-0.3667,-0.3607,-0.3607,-0.3607,-0.3607,-0.3607,-0.3607,-0.3919,-0.3883,-0.3876,-0.3831,-0.3817,-0.3784,-0.377,-0.3751,-0.3734,-0.3692,-0.3667,-0.3656,-0.3636,-0.3602,-0.3573,-0.3569,-0.3556,-0.3546,-0.3542,-0.3594,-0.36,-0.3606,-0.3614,-0.3544,-0.3544,-0.3489,-0.3489,-0.3488]}]]